Weather History for Thermal, CA

Change the Weather History Date:

Tuesday, February 5, 2013

  Actual Average Record
Temperature  
Mean Temperature 60 °F 56 °F  
Max Temperature 78 °F 73 °F 91 °F (1963)
Min Temperature 42 °F 40 °F 25 °F (1985)
Degree Days  
Heating Degree Days 5 9  
Month to date heating degree days 15 45  
Since 1 July heating degree days 842 905  
Cooling Degree Days 0 0  
Month to date cooling degree days 0 0  
Year to date cooling degree days 0 2  
Growing Degree Days 11 (Base 50)    
Moisture  
Dew Point 39 °F    
Average Humidity 48    
Maximum Humidity 76    
Minimum Humidity 19    
Precipitation  
Precipitation 0.00 in 0.02 in 0.03 in (1978)
Month to date precipitation T 0.10  
Year to date precipitation 0.37 0.77  
Since 1 July precipitation 2.55 2.15  
Snow  
Snow 0.00 in - - ()
Month to date snowfall 0.0  
Year to date snowfall 0.0  
Since 1 July snowfall 0.0  
Snow Depth 0.00 in    
Sea Level Pressure  
Sea Level Pressure 29.92 in    
Wind  
Wind Speed 4 mph (North)    
Max Wind Speed 9 mph    
Max Gust Speed 13 mph    
Visibility 10 miles    
Events      
T = Trace of Precipitation, MM = Missing Value Source: NWS Daily Summary

Daily Weather History Graph

Daily Weather History Graph

Search for Another Location

Airport:

Trip Planner

Search our weather history database for the weather conditions in past years. The results will help you decide how hot, cold, wet, or windy it might be!

Date:

Astronomy

Feb. 05, 2013 Rise Set
Actual Time 6:37 AM PST 5:20 PM PST
Civil Twilight 6:11 AM PST 5:46 PM PST
Nautical Twilight 5:42 AM PST 6:15 PM PST
Astronomical Twilight 5:13 AM PST 6:44 PM PST
Moon 2:19 AM PST (2/5) 12:47 PM PST (2/5)
Length of Visible Light 11h 34m
Length of Day
10h 42m
Waning Crescent, 25% of the Moon is Illuminated
Feb 5
Waning Crescent
Feb 9
New
Feb 17
First Quarter
Feb 25
Full
Mar 4
Last Quarter

Hourly Weather History & Observations

Time (PST) Temp. Windchill Dew Point Humidity Pressure Visibility Wind Dir Wind Speed Gust Speed Precip Events Conditions
12:52 AM 48.9 °F - 39.0 °F 69% 29.96 in 10.0 mi NNE 3.5 mph - N/A   Clear
1:52 AM 51.1 °F - 37.9 °F 61% 29.95 in 10.0 mi North 5.8 mph - N/A   Clear
2:52 AM 50.0 °F - 39.0 °F 66% 29.94 in 10.0 mi Calm Calm - N/A   Clear
3:52 AM 48.0 °F - 39.0 °F 71% 29.94 in 10.0 mi North 4.6 mph - N/A   Clear
4:52 AM 46.0 °F - 37.9 °F 73% 29.94 in 10.0 mi Calm Calm - N/A   Clear
5:52 AM 46.0 °F 44.8 °F 37.9 °F 73% 29.94 in 10.0 mi North 3.5 mph - N/A   Clear
6:52 AM 44.1 °F 42.5 °F 37.9 °F 79% 29.95 in 10.0 mi NW 3.5 mph - N/A   Clear
7:52 AM 55.0 °F - 39.9 °F 57% 29.97 in 10.0 mi Calm Calm - N/A   Clear
8:52 AM 63.0 °F - 39.0 °F 41% 29.98 in 10.0 mi Calm Calm - N/A   Clear
9:52 AM 66.9 °F - 44.1 °F 44% 29.99 in 10.0 mi ESE 4.6 mph - N/A   Clear
10:52 AM 71.1 °F - 41.0 °F 34% 29.98 in 10.0 mi Calm Calm - N/A   Clear
11:52 AM 73.9 °F - 39.9 °F 29% 29.95 in 10.0 mi SSE 6.9 mph - N/A   Clear
12:52 PM 75.9 °F - 35.1 °F 23% 29.91 in 10.0 mi SE 6.9 mph - N/A   Clear
1:52 PM 78.1 °F - 35.1 °F 21% 29.88 in 10.0 mi Variable 5.8 mph - N/A   Clear
3:52 PM 77.0 °F - 34.0 °F 21% 29.85 in 10.0 mi SE 6.9 mph - N/A   Clear
4:52 PM 72.0 °F - 36.0 °F 27% 29.84 in 10.0 mi SE 4.6 mph - N/A   Clear
5:52 PM 64.9 °F - 37.9 °F 37% 29.85 in 10.0 mi Calm Calm - N/A   Clear
6:52 PM 59.0 °F - 39.0 °F 48% 29.86 in 10.0 mi North 4.6 mph - N/A   Clear
7:52 PM 60.1 °F - 39.9 °F 47% 29.87 in 10.0 mi Variable 4.6 mph - N/A   Clear
8:52 PM 57.9 °F - 39.9 °F 51% 29.88 in 10.0 mi NNW 5.8 mph - N/A   Clear
9:52 PM 63.0 °F - 41.0 °F 45% 29.88 in 10.0 mi NW 5.8 mph - N/A   Clear
10:52 PM 63.0 °F - 43.0 °F 48% 29.88 in 9.0 mi NW 5.8 mph - N/A   Clear
11:52 PM 62.1 °F - 43.0 °F 50% 29.87 in 10.0 mi NNW 3.5 mph - N/A   Clear